sat.trackr.live / text

‹ back to catalog

STARLINK-36265

NORAD 67208 · 2025-304S

PAYLOAD ACTIVE UNKNOWN

§ Identity

Operator
Country
US
Launch date
2025-12-17
Launch site
AFWTR
Launch vehicle
Mass (kg)
RCS (m²)

Purposes: comms

External: N2YO · Heavens-Above · Gunter

§ Orbital elements

Epoch: 2026-09-20T02:37:20.394048Z

Period
96.11 min
Inclination
70.0017°
Eccentricity
0.0002998
Mean motion
14.98335185 rev/d
Perigee alt
570.0 km
Apogee alt
574.1 km
Semi-major
6,950.2 km
B*
1.7528e-4
RAAN
44.3854°
Arg perigee
269.4805°
Mean anomaly
90.6011°
Rev number
4,300

§ Raw data

STARLINK-362651 67208U 25304S   26263.10926382  .00001999  00000+0  17528-3 0  99902 67208  70.0017  44.3854 0002998 269.4805  90.6011 14.98335185 43001

JSON: /api/v1/satellites/67208 · /tle

For live sub-satellite position, see the globe view (requires WebGL).

§ Visibility from observer

Set your observer location to see the next 7 days of passes ≥ 10°. The values pass through the URL so the page stays shareable.

No JS? Fill the form by hand. The geolocation button needs JavaScript.